DW9396 Weather Reports


Display with metric or nautical units.
time (UTC)temp
F
wind
direction
speed
MPH
gust
MPH
rain 1hr
in
rain 24hr
in
rain mn
in
humidity
%
barometer
mb
20260510184511 84 287 0.0 2.0 0.00 0.00 0.00 43 1011.2
20260510183010 85 284 0.0 2.0 0.00 0.00 0.00 42 1011.3
20260510181509 84 348 0.0 2.0 0.00 0.00 0.00 42 1011.3
20260510180007 82 342 0.0 3.0 0.00 0.00 0.00 46 1011.3
20260510174503 81 347 0.0 2.0 0.00 0.00 0.00 50 1011.3
20260510173100 81 290 0.0 1.0 0.00 0.00 0.00 51 1011.3
20260510171602 79 221 0.0 2.0 0.00 0.00 0.00 53 1011.1
20260510170058 79 334 0.0 2.0 0.00 0.00 0.00 50 1011.1
20260510164552 77 297 0.0 1.0 0.00 0.00 0.00 54 1011.2
20260510163054 77 293 0.0 1.0 0.00 0.00 0.00 54 1011.1
20260510161550 76 112 0.0 0.0 0.00 0.00 0.00 57 1011.1
20260510160051 75 116 0.0 0.0 0.00 0.00 0.00 54 1011.0
20260510154546 73 117 0.0 1.0 0.00 0.00 0.00 59 1011.1
20260510153040 71 135 0.0 1.0 0.00 0.00 0.00 65 1011.1
20260510151536 68 135 0.0 1.0 0.00 0.00 0.00 71 1011.1
20260510150041 63 135 0.0 1.0 0.00 0.00 0.00 78 1011.2
20260510144533 59 141 0.0 1.0 0.00 0.00 0.00 85 1011.2
20260510143026 57 131 1.0 2.0 0.00 0.00 0.00 86 1011.2
20260510141532 56 131 1.0 3.0 0.00 0.00 0.00 87 1011.1
20260510140027 56 123 1.0 3.0 0.00 0.00 0.00 85 1010.9
20260510134530 55 138 1.0 3.0 0.00 0.00 0.00 86 1010.8
20260510133025 55 153 1.0 3.0 0.00 0.00 0.00 87 1010.6
20260510131510 55 134 1.0 3.0 0.00 0.00 0.00 87 1010.4
20260510130011 55 135 1.0 4.0 0.00 0.00 0.00 90 1010.4
20260510124509 54 129 0.0 3.0 0.00 0.00 0.00 91 1010.4
20260510123009 54 133 0.0 3.0 0.00 0.00 0.00 92 1010.5
20260510121518 54 141 0.0 0.0 0.00 0.00 0.00 93 1010.5
20260510120019 55 142 0.0 1.0 0.00 0.00 0.00 93 1010.6
20260510114516 55 138 0.0 2.0 0.00 0.00 0.00 92 1010.5
20260510113014 55 141 0.0 2.0 0.00 0.00 0.00 92 1010.5
20260510111511 56 149 1.0 3.0 0.00 0.00 0.00 91 1010.5
20260510110010 56 138 0.0 2.0 0.00 0.00 0.00 91 1010.5
20260510104522 56 142 0.0 2.0 0.00 0.00 0.00 91 1010.5
20260510103011 56 138 0.0 3.0 0.00 0.00 0.00 91 1010.6
20260510101507 56 143 0.0 3.0 0.00 0.00 0.00 90 1010.7
20260510100005 56 137 0.0 3.0 0.00 0.00 0.00 90 1010.7
20260510094504 56 148 1.0 2.0 0.00 0.00 0.00 90 1010.7
20260510093003 57 145 1.0 3.0 0.00 0.00 0.00 90 1010.8
20260510091503 57 142 1.0 4.0 0.00 0.00 0.00 90 1010.6
20260510090000 57 149 1.0 4.0 0.00 0.00 0.00 89 1010.6
20260510084604 58 141 1.0 3.0 0.00 0.00 0.00 88 1010.6
20260510083058 58 166 1.0 4.0 0.00 0.00 0.00 88 1010.6
20260510080056 58 145 0.0 3.0 0.00 0.00 0.00 90 1010.7
20260510074555 58 138 1.0 3.0 0.00 0.00 0.00 89 1010.6
20260510073103 58 138 1.0 3.0 0.00 0.00 0.00 89 1010.6
20260510070050 58 141 1.0 2.0 0.00 0.00 0.00 89 1010.7
20260510064550 59 136 0.0 0.0 0.00 0.00 0.00 88 1010.7
20260510063050 59 138 0.0 0.0 0.00 0.00 0.00 88 1010.6
20260510060048 61 141 0.0 0.0 0.00 0.00 0.00 85 1010.6
20260510054558 61 141 0.0 1.0 0.00 0.00 0.00 85 1010.6
20260510053047 61 131 0.0 1.0 0.00 0.00 0.00 84 1010.5
20260510050053 62 127 0.0 2.0 0.00 0.00 0.00 83 1010.7
20260510044549 63 142 0.0 1.0 0.00 0.00 0.00 83 1010.6
20260510043047 63 143 0.0 1.0 0.00 0.00 0.00 81 1010.7
20260510040045 65 82 0.0 1.0 0.00 0.00 0.00 77 1010.7
20260510034553 66 82 0.0 1.0 0.00 0.00 0.00 75 1010.6
20260510033050 67 82 0.0 1.0 0.00 0.00 0.00 73 1010.4
20260510030045 69 80 0.0 0.0 0.00 0.00 0.00 68 1010.2
20260510024604 70 80 0.0 0.0 0.00 0.00 0.00 66 1010.1
20260510023043 71 80 0.0 1.0 0.00 0.00 0.00 64 1010.0
20260510020041 73 360 0.0 0.0 0.00 0.00 0.00 62 1009.7
20260510014540 74 278 0.0 1.0 0.00 0.00 0.00 61 1009.7
20260510013049 75 25 0.0 2.0 0.00 0.00 0.00 59 1009.7
20260510010041 77 348 0.0 2.0 0.00 0.00 0.00 53 1009.7
20260510004546 78 288 0.0 3.0 0.00 0.00 0.00 52 1009.8
20260510003040 79 1 1.0 3.0 0.00 0.00 0.00 49 1009.8
20260510000038 82 352 0.0 2.0 0.00 0.00 0.00 48 1009.9
20260509234537 82 329 1.0 3.0 0.00 0.00 0.00 47 1010.0
20260509233037 82 346 0.0 4.0 0.00 0.00 0.00 48 1010.0
20260509230034 82 358 1.0 3.0 0.00 0.00 0.00 47 1010.0
20260509224535 82 284 1.0 5.0 0.00 0.00 0.00 47 1010.1
20260509223038 82 313 0.0 3.0 0.00 0.00 0.00 47 1010.4
20260509220032 83 354 0.0 3.0 0.00 0.00 0.00 42 1010.5
20260509214532 83 333 0.0 3.0 0.00 0.00 0.00 43 1010.5
20260509213029 83 270 0.0 3.0 0.00 0.00 0.00 45 1010.7
20260509210027 82 19 1.0 4.0 0.00 0.00 0.00 46 1010.7
20260509204523 83 314 0.0 3.0 0.00 0.00 0.00 48 1010.8
20260509203024 82 288 0.0 4.0 0.00 0.00 0.00 48 1011.0
20260509200019 81 316 0.0 3.0 0.00 0.00 0.00 48 1011.1
20260509194518 81 284 0.0 3.0 0.00 0.00 0.00 48 1011.2
20260509193017 81 32 1.0 3.0 0.00 0.00 0.00 46 1011.4
20260509190017 82 240 0.0 2.0 0.00 0.00 0.00 47 1011.7